logo
App data

Deisim

Live the experience of being a powerful god and create the world to see the growth of mankind.
Store | Hub | SteamDB | Site
Developer: Myron Software Publisher: Myron Software
Genre: Casual, Indie, Simulation, Strategy, Early Access
Languages: English, French, Italian, German, Spanish - Spain, Swedish, Simplified Chinese, Korean, Japanese, Polish, Russian, Turkish
Tags: Early Access (191), VR (173), God Game (164), Sandbox (157), Building (156), Resource Management (152), Puzzle (142), Artificial Intelligence (141), Casual (135), Simulation (132), City Builder (130), Mythology (129), Colony Sim (124), Strategy (115), Relaxing (115), Minimalist (111), Colorful (103), Family Friendly (96), Funny (92), Singleplayer (86), VR Only (1)
Category: Single-player, Steam Achievements
Release date: Dec 19, 2016
Price: $10.49 30%
Old userscore: 91% Owners: 50,000 .. 100,000
Followers: 3,525
Peak concurrent players yesterday: 10
YouTube stats: 20 views and 2 comments for top 50 videos uploaded last week, 2 new videos uploaded yesterday.

Steam Spy is still in beta, so expect major bugs.

Owners data:

Access restricted.

This feature is only available to users with special access rights. Sorry.

If you want to proceed, you need to register or log in first and then back Steam Spy on Patreon. Look for Indie or Pro pledge.

Don't forget to use the same email as on Steam Spy!

If you've recently backed Steam Spy on Patreon, please note, that it might take around 15 minutes for your access rights to sync. In most cases you'll need to re-login on Steam Spy too.

Audience in 2 weeks:

Access restricted.

This feature is only available to users with special access rights. Sorry.

If you want to proceed, you need to register or log in first and then back Steam Spy on Patreon. Look for Indie or Pro pledge.

Don't forget to use the same email as on Steam Spy!

If you've recently backed Steam Spy on Patreon, please note, that it might take around 15 minutes for your access rights to sync. In most cases you'll need to re-login on Steam Spy too.

Peak daily concurrent players:

CCU data courtesy of SteamDB. Used with permission.

Hourly concurrent players:

Daily Twitch stats:

Hourly Twitch stats:

Followers over time

Access restricted.

This feature is only available to users with special access rights. Sorry.

If you want to proceed, you need to register or log in first and then back Steam Spy on Patreon. Look for Indie or Pro pledge.

Don't forget to use the same email as on Steam Spy!

If you've recently backed Steam Spy on Patreon, please note, that it might take around 15 minutes for your access rights to sync. In most cases you'll need to re-login on Steam Spy too.

Views for top 50 videos on YouTube for this game:

Games similar to this one:

# Game Release date
Price
Score rank
(Userscore / Metascore)
Owners
Players
Playtime (Median)
1 BIT.TRIP BEAT Nov 2, 2010 $4.19N/A (N/A)200,000 .. 500,0000%00:00 (00:00)
2 Super Splatters Jun 26, 2013 N/AN/A (N/A/73%)50,000 .. 100,0000%00:00 (00:00)
3 SOL: Exodus Jan 25, 2012 $7.99N/A (N/A/57%)50,000 .. 100,0000%00:00 (00:00)
4 Titan Attacks! Feb 3, 2012 $3.24N/A (N/A)50,000 .. 100,0000%00:00 (00:00)
5 BIT.TRIP CORE Oct 2, 2012 $6.99N/A (N/A)50,000 .. 100,0000%00:00 (00:00)
6 BIT.TRIP VOID Dec 19, 2012 $6.99N/A (N/A)20,000 .. 50,0000%00:00 (00:00)
7 Tales From Space: Mutant Blobs Attack Aug 15, 2012 $2.49N/A (N/A/83%)100,000 .. 200,0000%00:00 (00:00)
8 All Zombies Must Die!: Scorepocalypse Apr 19, 2012 $4.99N/A (N/A)20,000 .. 50,0000%00:00 (00:00)
9 Unmechanical Aug 8, 2012 $4.99N/A (N/A/74%)100,000 .. 200,0000%00:00 (00:00)
10 Sugar Cube: Bittersweet Factory Nov 7, 2012 $0.69N/A (N/A)20,000 .. 50,0000%00:00 (00:00)
11 Home Jun 1, 2012 $4.99N/A (N/A/69%)200,000 .. 500,0000%00:00 (00:00)
12 Ultratron Mar 18, 2013 $3.24N/A (N/A)100,000 .. 200,0000%00:00 (00:00)
13 Cargo Commander Nov 1, 2012 $0.59N/A (N/A)100,000 .. 200,0000%00:00 (00:00)
14 Puddle Nov 9, 2012 $7.99N/A (N/A)100,000 .. 200,0000%00:00 (00:00)
15 Retro/Grade Mar 20, 2013 $2.49N/A (N/A)50,000 .. 100,0000%00:00 (00:00)
16 Papo & Yo Apr 18, 2013 $14.99N/A (N/A/70%)200,000 .. 500,0000%00:00 (00:00)
17 Dream Jul 31, 2015 $1.79N/A (N/A/59%)50,000 .. 100,0000%00:00 (00:00)
18 Godus Jul 1, 1989 $14.99N/A (N/A)200,000 .. 500,0000%00:00 (00:00)
19 Wake 1895 $1.24N/A (N/A)0 .. 20,0000%00:00 (00:00)
20 Zack Zero Apr 29, 2013 $2.99N/A (N/A)50,000 .. 100,0000%00:00 (00:00)
21 Element4l May 24, 2013 $8.99N/A (N/A/77%)50,000 .. 100,0000%00:00 (00:00)
22 Super Puzzle Platformer Deluxe May 24, 2013 $0.79N/A (N/A)20,000 .. 50,0000%00:00 (00:00)
23 The Novelist Dec 10, 2013 $0.99N/A (N/A/66%)100,000 .. 200,0000%00:00 (00:00)
24 Knytt Underground Oct 25, 2013 $1.39N/A (N/A)50,000 .. 100,0000%00:00 (00:00)
25 Omegalodon Mar 9, 2012 $2.49N/A (N/A)20,000 .. 50,0000%00:00 (00:00)
26 Escape Goat Jun 14, 2012 $4.99N/A (N/A)20,000 .. 50,0000%00:00 (00:00)
27 Gravity Ghost Jan 26, 2015 $14.99N/A (N/A/75%)20,000 .. 50,0000%00:00 (00:00)
28 Solar Flux Oct 24, 2013 $9.99N/A (N/A)100,000 .. 200,0000%00:00 (00:00)
29 Maia Nov 23, 2018 $24.99N/A (N/A)20,000 .. 50,0000%00:00 (00:00)
30 FOTONICA Nov 6, 2014 $1.49N/A (N/A/71%)50,000 .. 100,0000%00:00 (00:00)
31 Gentlemen! Nov 5, 2013 $1.24N/A (N/A)20,000 .. 50,0000%00:00 (00:00)
32 Escape Goat 2 Mar 24, 2014 $4.99N/A (N/A/76%)50,000 .. 100,0009.09%01:00 (00:20)
33 Survivor Squad Nov 8, 2013 $0.74N/A (N/A)100,000 .. 200,0000%00:00 (00:00)
34 Montague's Mount Nov 19, 2013 $4.99N/A (N/A/39%)20,000 .. 50,0000%00:00 (00:00)
35 Ballpoint Universe - Infinite Dec 17, 2013 $3.99N/A (N/A)50,000 .. 100,0000%00:00 (00:00)
36 STARWHAL Sep 29, 2014 $11.99N/A (N/A)50,000 .. 100,0000%00:00 (00:00)
37 Full Bore May 6, 2014 $3.74N/A (N/A/72%)20,000 .. 50,0000%00:00 (00:00)
38 Imagine Me Mar 14, 2014 $2.99N/A (N/A)20,000 .. 50,0000%00:00 (00:00)
39 Montas Mar 24, 2014 $9.99N/A (N/A)0 .. 20,0000%00:00 (00:00)
40 Jones On Fire Mar 27, 2015 $0.74N/A (N/A)50,000 .. 100,0000%00:00 (00:00)
41 10 Second Ninja Mar 5, 2014 $1.99N/A (N/A/72%)50,000 .. 100,0000%00:00 (00:00)
42 Labyrinthine Dreams May 26, 2015 $0.51N/A (N/A)50,000 .. 100,0000%00:00 (00:00)
43 Imagine Earth May 25, 2021 $12.49N/A (N/A/78%)50,000 .. 100,0000%00:00 (00:00)
44 T.E.C. 3001 Apr 10, 2014 N/AN/A (N/A)20,000 .. 50,0000%00:00 (00:00)
45 Munin Jun 10, 2014 $0.54N/A (N/A/68%)200,000 .. 500,0005.56%05:38 (01:52)
46 Rabbit Hole 3D: Steam Edition Apr 25, 2014 $0.74N/A (N/A)50,000 .. 100,0000%00:00 (00:00)
47 ReignMaker Apr 16, 2014 $14.99N/A (N/A)50,000 .. 100,0000%00:00 (00:00)
48 Autocraft Sep 20, 2017 $2.49N/A (N/A)0 .. 20,0000%00:00 (00:00)
49 Volt Apr 14, 2014 $0.99N/A (N/A)100,000 .. 200,0000%00:00 (00:00)
50 Slip Apr 28, 2014 $0.99N/A (N/A)20,000 .. 50,0000%00:00 (00:00)
51 Three Dead Zed Jul 7, 2014 $5.99N/A (N/A)100,000 .. 200,0000%00:00 (00:00)
52 Uriel's Chasm Sep 12, 2014 $0.54N/A (N/A)200,000 .. 500,0000%00:00 (00:00)
53 Cosmochoria Apr 27, 2015 $2.49N/A (N/A)20,000 .. 50,0000%00:00 (00:00)
54 Road Not Taken Aug 5, 2014 $4.49N/A (N/A/75%)50,000 .. 100,0000%00:00 (00:00)
55 Stranded May 20, 2014 $0.49N/A (N/A)50,000 .. 100,0000%00:00 (00:00)
56 TownCraft Feb 25, 2015 $9.99N/A (N/A)0 .. 20,0000%00:00 (00:00)
57 Dreaming Sarah Mar 12, 2015 $1.19N/A (N/A)200,000 .. 500,0000%00:00 (00:00)
58 Captain Forever Remix Jun 3, 2016 $9.99N/A (N/A)20,000 .. 50,0000%00:00 (00:00)
59 Frederic: Resurrection of Music May 16, 2014 $0.53N/A (N/A)100,000 .. 200,0000%00:00 (00:00)
60 Frederic: Evil Strikes Back May 23, 2014 $0.79N/A (N/A)200,000 .. 500,0000%00:00 (00:00)
61 Rhythm Destruction Jun 16, 2014 $4.99N/A (N/A)50,000 .. 100,0000%00:00 (00:00)
62 Ballad of Solar May 22, 2014 $0.69N/A (N/A)0 .. 20,0000%00:00 (00:00)
63 Boson X Sep 15, 2014 $1.49N/A (N/A)200,000 .. 500,0000%00:00 (00:00)
64 TRISTOY Jan 15, 2015 $1.39N/A (N/A/49%)20,000 .. 50,0000%00:00 (00:00)
65 Echo of the Wilds Jun 10, 2014 $3.84N/A (N/A)100,000 .. 200,0000%00:00 (00:00)
66 Oblitus Feb 27, 2015 $1.49N/A (N/A/69%)20,000 .. 50,0000%00:00 (00:00)
67 Iron Fisticle Sep 16, 2014 $0.89N/A (N/A)50,000 .. 100,0000%00:00 (00:00)
68 Fancy Skulls Jun 16, 2014 $8.99N/A (N/A)50,000 .. 100,0000%00:00 (00:00)
69 Curses 'N Chaos Aug 18, 2015 $4.99N/A (N/A)20,000 .. 50,0000%00:00 (00:00)
70 Back to Bed Aug 6, 2014 $0.59N/A (N/A)1,000,000 .. 2,000,0000%00:00 (00:00)
71 NEON STRUCT May 20, 2015 $1.79N/A (N/A/62%)50,000 .. 100,0000%00:00 (00:00)
72 Mega Coin Squad Aug 15, 2014 $1.49N/A (N/A/56%)0 .. 20,0000%00:00 (00:00)
73 OTTTD Aug 6, 2014 $0.79N/A (N/A)20,000 .. 50,0000%00:00 (00:00)
74 The Masterplan Jun 4, 2015 $19.99N/A (N/A/68%)50,000 .. 100,0000%00:00 (00:00)
75 A City Sleeps Oct 16, 2014 $0.99N/A (N/A)20,000 .. 50,0000%00:00 (00:00)
76 Velocibox Sep 8, 2014 $2.49N/A (N/A)50,000 .. 100,0000%00:00 (00:00)
77 Squishy the Suicidal Pig Oct 23, 2014 $0.59N/A (N/A)200,000 .. 500,0000%00:00 (00:00)
78 Chariot Nov 12, 2014 $1.49N/A (N/A/76%)100,000 .. 200,0000%00:00 (00:00)
79 Ninja Pizza Girl Sep 30, 2015 $6.99N/A (N/A/82%)50,000 .. 100,0000%00:00 (00:00)
80 iO Dec 5, 2014 $0.74N/A (N/A)20,000 .. 50,0000%00:00 (00:00)
81 Horizon Shift May 29, 2015 $0.99N/A (N/A)100,000 .. 200,0000%00:00 (00:00)
82 Traverser Jul 9, 2015 $1.49N/A (N/A/61%)20,000 .. 50,0000%00:00 (00:00)
83 The Deer God Feb 27, 2015 $14.99N/A (N/A/59%)20,000 .. 50,0000%00:00 (00:00)
84 Pix the Cat Jan 29, 2015 $0.99N/A (N/A/77%)50,000 .. 100,0000%00:00 (00:00)
85 Tulpa Jan 29, 2015 $2.99N/A (N/A)50,000 .. 100,0000%00:00 (00:00)
86 Amphora Nov 12, 2014 $13.99N/A (N/A)0 .. 20,0000%00:00 (00:00)
87 Phoenix Force Nov 13, 2014 $0.49N/A (N/A)100,000 .. 200,0000%00:00 (00:00)
88 Marvin's Mittens Dec 17, 2014 $5.99N/A (N/A)20,000 .. 50,0000%00:00 (00:00)
89 A Druid's Duel Feb 25, 2015 $7.99N/A (N/A/70%)0 .. 20,0000%00:00 (00:00)
90 Dwarf Tower May 5, 2014 $0.99N/A (N/A)20,000 .. 50,0000%00:00 (00:00)
91 Ephemerid: A Musical Adventure Feb 3, 2015 $1.99N/A (N/A)20,000 .. 50,0000%00:00 (00:00)
92 Sky Mercenaries Dec 16, 2014 $3.59N/A (N/A)20,000 .. 50,0000%00:00 (00:00)
93 Bloody Streets Mar 12, 2015 $4.99N/A (N/A)20,000 .. 50,0000%00:00 (00:00)
94 Chronicles of a Dark Lord: Episode 1 Tides of Fate Complete Dec 19, 2014 N/AN/A (N/A)50,000 .. 100,0000%00:00 (00:00)
95 Four Sided Fantasy Aug 30, 2016 $0.99N/A (N/A)50,000 .. 100,0000%00:00 (00:00)
96 Ukrainian Ninja Dec 23, 2014 FreeN/A (N/A)100,000 .. 200,0000%00:00 (00:00)
97 TIMEframe Jul 7, 2015 $5.99N/A (N/A)20,000 .. 50,0000%00:00 (00:00)
98 Tomb of Tyrants Jun 25, 2015 $2.71N/A (N/A)20,000 .. 50,0000%00:00 (00:00)
99 On A Roll 3D Feb 12, 2015 $1.99N/A (N/A)50,000 .. 100,0000%00:00 (00:00)
100 Glorkian Warrior: The Trials Of Glork Mar 24, 2015 $0.59N/A (N/A)20,000 .. 50,0000%00:00 (00:00)
101 It came from space and ate our brains Mar 19, 2015 $7.49N/A (N/A)200,000 .. 500,0000%00:00 (00:00)
102 Disillusions Manga Horror Apr 6, 2013 $0.59N/A (N/A)20,000 .. 50,0000%00:00 (00:00)
103 Three Fourths Home: Extended Edition Mar 20, 2015 $0.74N/A (N/A/77%)20,000 .. 50,0000%00:00 (00:00)
104 The Cursed Forest Feb 26, 2019 $6.43N/A (N/A)20,000 .. 50,0000%00:00 (00:00)
105 Rats - Time is running out! Aug 19, 2015 N/AN/A (N/A)50,000 .. 100,0000%00:00 (00:00)
106 Starship Traveller Mar 11, 2015 $1.99N/A (N/A)0 .. 20,0000%00:00 (00:00)
107 BlastZone 2 Feb 19, 2015 $2.49N/A (N/A)20,000 .. 50,0000%00:00 (00:00)
108 Reflections Jun 26, 2015 $9.99N/A (N/A)0 .. 20,0000%00:00 (00:00)
109 Porcunipine May 21, 2015 $0.99N/A (N/A)20,000 .. 50,0000%00:00 (00:00)
110 Star Horizon May 15, 2020 $9.99N/A (N/A)0 .. 20,0000%00:00 (00:00)
111 Bunker - The Underground Game May 21, 2015 $0.51N/A (N/A/70%)20,000 .. 50,0000%00:00 (00:00)
112 NEO AQUARIUM - The King of Crustaceans - Jun 8, 2015 $1.79N/A (N/A)50,000 .. 100,0000%00:00 (00:00)
113 Home is Where One Starts... May 12, 2015 $0.59N/A (N/A)20,000 .. 50,0000%00:00 (00:00)
114 Beyond Eyes Aug 11, 2015 N/AN/A (N/A/60%)100,000 .. 200,0000%00:00 (00:00)
115 Orbit HD Mar 18, 2015 $0.99N/A (N/A)50,000 .. 100,0000%00:00 (00:00)
116 Big Action Mega Fight! Jan 12, 2016 $0.99N/A (N/A)20,000 .. 50,0000%00:00 (00:00)
117 Inside My Radio May 11, 2015 $0.99N/A (N/A/68%)50,000 .. 100,0000%00:00 (00:00)
118 Gryphon Knight Epic Aug 20, 2015 $12.99N/A (N/A/55%)20,000 .. 50,0000%00:00 (00:00)
119 Hare In The Hat Apr 1, 2015 $1.99N/A (N/A)50,000 .. 100,0000%00:00 (00:00)
120 Spellsworn Mar 13, 2018 FreeN/A (N/A)100,000 .. 200,0000%00:00 (00:00)
121 Luna Sky Oct 2, 2015 $12.99N/A (N/A)50,000 .. 100,0000%00:00 (00:00)
122 Interstellar Rift Sep 24, 2020 $6.79N/A (N/A)50,000 .. 100,0000%00:00 (00:00)
123 Pixel Star May 22, 2015 $2.99N/A (N/A)20,000 .. 50,0000%00:00 (00:00)
124 Polyball Dec 1, 2017 $14.99N/A (N/A)200,000 .. 500,0000%00:00 (00:00)
125 Season of 12 Colors Mar 14, 2016 $1.79N/A (N/A)50,000 .. 100,0000%00:00 (00:00)
126 Impossiball Aug 8, 2017 $0.54N/A (N/A)0 .. 20,0000%00:00 (00:00)
127 Tin Star Feb 21, 2014 $2.99N/A (N/A)0 .. 20,0000%00:00 (00:00)
128 Football, Tactics & Glory Jun 1, 2018 $7.49N/A (N/A)200,000 .. 500,0000%00:00 (00:00)
129 The Adventures of Mr. Bobley Jun 30, 2015 $0.99N/A (N/A)50,000 .. 100,0000%00:00 (00:00)
130 Monument Jun 5, 2015 $0.49N/A (N/A)200,000 .. 500,00014.29%04:16 (01:25)
131 Western Press Apr 21, 2016 $0.54N/A (N/A)20,000 .. 50,0000%00:00 (00:00)
132 Sky Rogue Aug 24, 2017 $9.99N/A (N/A)50,000 .. 100,0000%00:00 (00:00)
133 Action Alien Jun 26, 2015 $1.19N/A (N/A)100,000 .. 200,0000%00:00 (00:00)
134 8Bit Fiesta - Party Game Sep 30, 2016 FreeN/A (N/A)50,000 .. 100,0000%00:00 (00:00)
135 RETSNOM Jul 23, 2015 $1.24N/A (N/A)0 .. 20,0000%00:00 (00:00)
136 Dead In Bermuda Aug 27, 2015 $2.99N/A (N/A)20,000 .. 50,0000%00:00 (00:00)
137 Aviary Attorney Dec 21, 2015 $14.99N/A (N/A/77%)20,000 .. 50,0000%00:00 (00:00)
138 Earth Overclocked Dec 4, 2015 $4.99N/A (N/A)20,000 .. 50,0000%00:00 (00:00)
139 Redemption: Eternal Quest Aug 28, 2015 $0.49N/A (N/A)100,000 .. 200,0000%00:00 (00:00)
140 Angry Arrows Aug 12, 2015 $4.99N/A (N/A)20,000 .. 50,0000%00:00 (00:00)
141 Void Invaders Aug 14, 2015 $0.53N/A (N/A)20,000 .. 50,0000%00:00 (00:00)
142 Blaster Shooter GunGuy! Aug 10, 2015 $0.99N/A (N/A)100,000 .. 200,0000%00:00 (00:00)
143 Wild Island Quest Sep 4, 2015 $0.49N/A (N/A)50,000 .. 100,0000%00:00 (00:00)
144 Dragon's Wake Dec 10, 2015 $3.99N/A (N/A)20,000 .. 50,0000%00:00 (00:00)
145 Kitchen Simulator 2015 Sep 4, 2015 $0.49N/A (N/A)20,000 .. 50,0000%00:00 (00:00)
146 ChargeShot Sep 18, 2015 $1.99N/A (N/A)20,000 .. 50,0000%00:00 (00:00)
147 1,000 Heads Among the Trees Dec 11, 2015 $4.99N/A (N/A)100,000 .. 200,0000%00:00 (00:00)
148 Dream Factory Nov 2, 2015 $9.99N/A (N/A)20,000 .. 50,0000%00:00 (00:00)
149 Fist Slash: Of Ultimate Fury Dec 10, 2015 $0.99N/A (N/A)20,000 .. 50,0000%00:00 (00:00)
150 The Purring Quest Nov 12, 2015 $0.99N/A (N/A)100,000 .. 200,0000%00:00 (00:00)
151 Perraw - FPS Clone War Alpha Jan 29, 2016 $0.54N/A (N/A)20,000 .. 50,0000%00:00 (00:00)
152 Morphine Oct 26, 2015 $0.74N/A (N/A)50,000 .. 100,0000%00:00 (00:00)
153 Cosmic Leap Mar 17, 2016 $0.51N/A (N/A)50,000 .. 100,0000%00:00 (00:00)
154 Godus Wars Feb 3, 2016 $14.99N/A (N/A)50,000 .. 100,0000%00:00 (00:00)
155 Bell Ringer Mar 6, 2016 $6.99N/A (N/A)200,000 .. 500,0000%00:00 (00:00)
156 Space Moth DX Jan 22, 2016 $1.24N/A (N/A)20,000 .. 50,0000%00:00 (00:00)
157 PERFECT ANGLE: The puzzle game based on optical illusions Dec 22, 2015 $3.99N/A (N/A)100,000 .. 200,0000%00:00 (00:00)
158 IMSCARED Jan 31, 2016 $1.99N/A (N/A)50,000 .. 100,0000%00:00 (00:00)
159 Doodle Kingdom Jun 9, 2016 $2.24N/A (N/A)50,000 .. 100,0000%00:00 (00:00)
160 10 Second Ninja X Jul 19, 2016 $0.99N/A (N/A)200,000 .. 500,0000%00:00 (00:00)
161 Empire of the Gods Jan 27, 2016 $0.99N/A (N/A)50,000 .. 100,0000%00:00 (00:00)
162 Mindless Running Feb 22, 2016 $0.49N/A (N/A)50,000 .. 100,0000%00:00 (00:00)
163 Mimpi Dreams Mar 22, 2016 FreeN/A (N/A)20,000 .. 50,0000%00:00 (00:00)
164 Bunker Punks May 28, 2018 $2.99N/A (N/A)20,000 .. 50,0000%00:00 (00:00)
165 Share May 3, 2016 $0.49N/A (N/A)20,000 .. 50,0000%00:00 (00:00)
166 Yon Paradox May 6, 2016 $2.99N/A (N/A)0 .. 20,0000%00:00 (00:00)
167 Amigdala Mar 28, 2016 $5.99N/A (N/A)20,000 .. 50,0000%00:00 (00:00)
168 Cube Land Arena Mar 8, 2019 $0.49N/A (N/A)50,000 .. 100,0000%00:00 (00:00)
169 Hero Quest: Tower Conflict Apr 13, 2016 $0.99N/A (N/A)200,000 .. 500,0000%00:00 (00:00)
170 CrazyCars3D Mar 28, 2016 $2.99N/A (N/A)50,000 .. 100,0000%00:00 (00:00)
171 Mainlining Jan 26, 2017 $1.94N/A (N/A/73%)100,000 .. 200,0000%00:00 (00:00)
172 Domino Sky Apr 5, 2016 $0.99N/A (N/A)100,000 .. 200,0000%00:00 (00:00)
173 Wrath of Anna Apr 2, 2018 $19.99N/A (N/A)50,000 .. 100,0000%00:00 (00:00)
174 Blade Ballet Aug 9, 2016 $14.99N/A (N/A)0 .. 20,0000%00:00 (00:00)
175 NORTH Apr 27, 2016 $1.09N/A (N/A)200,000 .. 500,0000%00:00 (00:00)
176 New Retro Arcade: Neon Nov 19, 2019 $16.99N/A (N/A)20,000 .. 50,0000%00:00 (00:00)
177 The Nest Jun 14, 2016 FreeN/A (N/A)0 .. 20,0000%00:00 (00:00)
178 Scanner Sombre Apr 26, 2017 $1.19N/A (N/A/67%)100,000 .. 200,0000%00:00 (00:00)
179 Reflection of Mine Feb 24, 2017 $1.99N/A (N/A)20,000 .. 50,0000%00:00 (00:00)
180 Star Drifter Jun 1, 2016 $0.99N/A (N/A)200,000 .. 500,0000%00:00 (00:00)
181 Call Of The Mighty Warriors Mar 1, 2019 $0.49N/A (N/A)20,000 .. 50,0000%00:00 (00:00)
182 Karma Miwa Aug 12, 2016 FreeN/A (N/A)20,000 .. 50,0000%00:00 (00:00)
183 Super Duper Party Pooper Jun 6, 2016 $0.99N/A (N/A/40%)100,000 .. 200,0000%00:00 (00:00)
184 DashBored Jun 13, 2016 $4.99N/A (N/A)50,000 .. 100,0000%00:00 (00:00)
185 Bohemian Killing Jul 21, 2016 $12.99N/A (N/A/55%)20,000 .. 50,0000%00:00 (00:00)
186 Alteric Jul 13, 2016 $3.99N/A (N/A)20,000 .. 50,0000%00:00 (00:00)
187 Dinosaur Forest May 17, 2017 $0.51N/A (N/A)100,000 .. 200,0000%00:00 (00:00)
188 Wheels of Aurelia Sep 20, 2016 $1.49N/A (N/A/63%)20,000 .. 50,0000%00:00 (00:00)
189 Joana's Life Sep 1, 2016 $0.99N/A (N/A)50,000 .. 100,0000%00:00 (00:00)
190 Pinkman Jan 16, 2017 $0.59N/A (N/A)20,000 .. 50,0000%00:00 (00:00)
191 It Comes Around - A Kinetic Novel Sep 29, 2016 $2.99N/A (N/A)0 .. 20,0000%00:00 (00:00)
192 Starship Annihilator Sep 2, 2016 $0.51N/A (N/A)200,000 .. 500,0006.67%03:06 (01:02)
193 Please, Don't Touch Anything 3D Dec 7, 2016 $4.99N/A (N/A)100,000 .. 200,0008.33%00:08 (00:02)
194 mr.President Prologue Episode Sep 20, 2016 $0.51N/A (N/A)50,000 .. 100,0000%00:00 (00:00)
195 Filthy Lucre Dec 11, 2016 $12.99N/A (N/A)0 .. 20,0000%00:00 (00:00)
196 BoomTown! Deluxe Oct 14, 2016 $0.49N/A (N/A)20,000 .. 50,0000%00:00 (00:00)
197 Pixel Gladiator Sep 8, 2017 $0.59N/A (N/A)20,000 .. 50,0000%00:00 (00:00)
198 Snake Pass Mar 28, 2017 $4.99N/A (N/A/71%)200,000 .. 500,0000%00:00 (00:00)
199 Wayout Nov 4, 2016 $0.56N/A (N/A)50,000 .. 100,0000%00:00 (00:00)
200 Zolg Dec 2, 2016 $0.51N/A (N/A)50,000 .. 100,0000%00:00 (00:00)
201 Witch It Oct 22, 2020 $4.99N/A (N/A)500,000 .. 1,000,0002.17%01:23 (01:08)
202 Introvert Quest Mar 15, 2017 $0.5N/A (N/A)100,000 .. 200,0000%00:00 (00:00)
203 Distant Space Dec 20, 2016 $0.49N/A (N/A)100,000 .. 200,0000%00:00 (00:00)
204 Mistwood Heroes Dec 30, 2016 $0.51N/A (N/A)50,000 .. 100,0000%00:00 (00:00)
205 Starship Theory Jul 4, 2017 FreeN/A (N/A)50,000 .. 100,0000%00:00 (00:00)
206 GORN Jul 18, 2019 $12.99N/A (N/A/85%)200,000 .. 500,0000%00:00 (00:00)
207 News Tycoon Mar 24, 2017 $6.99N/A (N/A)20,000 .. 50,0000%00:00 (00:00)
208 Monolith Jun 7, 2017 $3.99N/A (N/A/83%)100,000 .. 200,0000%00:00 (00:00)
209 Guns of Icarus Alliance Mar 31, 2017 $4.99N/A (N/A)100,000 .. 200,0000%00:00 (00:00)
210 The Archotek Project Apr 28, 2017 $0.99N/A (N/A)200,000 .. 500,0000%00:00 (00:00)

Tags over time:

Access restricted.

This feature is only available to users with special access rights. Sorry.

If you want to proceed, you need to register or log in first and then back Steam Spy on Patreon. Look for Indie or Pro pledge.

Don't forget to use the same email as on Steam Spy!

If you've recently backed Steam Spy on Patreon, please note, that it might take around 15 minutes for your access rights to sync. In most cases you'll need to re-login on Steam Spy too.

Owners of this game also own:

Access restricted.

This feature is only available to users with special access rights. Sorry.

If you want to proceed, you need to register or log in first and then back Steam Spy on Patreon. Look for Indie or Pro pledge.

Don't forget to use the same email as on Steam Spy!

If you've recently backed Steam Spy on Patreon, please note, that it might take around 15 minutes for your access rights to sync. In most cases you'll need to re-login on Steam Spy too.

Playtime distribution:

Access restricted.

This feature is only available to users with special access rights. Sorry.

If you want to proceed, you need to register or log in first and then back Steam Spy on Patreon. Look for Indie or Pro pledge.

Don't forget to use the same email as on Steam Spy!

If you've recently backed Steam Spy on Patreon, please note, that it might take around 15 minutes for your access rights to sync. In most cases you'll need to re-login on Steam Spy too.

Playtime (2 weeks):

Access restricted.

This feature is only available to users with special access rights. Sorry.

If you want to proceed, you need to register or log in first and then back Steam Spy on Patreon. Look for Indie or Pro pledge.

Don't forget to use the same email as on Steam Spy!

If you've recently backed Steam Spy on Patreon, please note, that it might take around 15 minutes for your access rights to sync. In most cases you'll need to re-login on Steam Spy too.

User reviews:

Login required.

Please register or log in to see this information.